Regional Weather Roundup
Issued by NWS Albany, NY

Home | Current Version | Previous Version | Text Only | Print | Product List | Glossary On
Versions: 1 2 3 4 5 6 7 8 9 10 11 12 13 14 15 16 17 18 19 20 21 22 23 24 25 26 27
000
ASUS41 KALY 222310
RWRALY

NEW YORK STATE HOURLY WEATHER ROUNDUP
NATIONAL WEATHER SERVICE ALBANY NY
700 PM EDT SUN OCT 22 2017

NOTE: "FAIR" INDICATES FEW OR NO CLOUDS BELOW 12,000 FEET WITH NO
SIGNIFICANT WEATHER AND/OR NO OBSTRUCTIONS TO VISIBILITY.

NYZ032-033-038>043-046>054-057>066-NYZ062>081-082-084-230000-
EAST


CITY           SKY/WX    TMP DP  RH WIND       PRES   REMARKS
ALBANY         CLOUDY    67  44  43 S7        30.30S
GLENS FALLS    CLOUDY    53  46  77 CALM      30.30R
POUGHKEEPSIE   PTCLDY    65  44  46 SE5       30.33R
NEWBURGH       PTCLDY    68  46  45 VRB5      30.35S
MONTGOMERY     PTCLDY    66  43  43 S3        30.33R
WHITE PLAINS   PTCLDY    61  46  57 S3        30.36S
ISLIP          MOCLDY    60  56  86 E3        30.38R
NEW YORK CITY  MOCLDY    67  53  61 S7        30.35S
CENTRAL PARK   CLEAR     65  50  58 VRB3      30.38S
$$

NYZ005>009-017-018-044>046-055-056-230000-
CENTRAL


CITY           SKY/WX    TMP DP  RH WIND       PRES   REMARKS
FULTON         CLEAR     67  50  54 VRB3      30.22S
SYRACUSE       PTCLDY    63  49  60 E7        30.23S
ROME           PTCLDY    65  46  50 E5        30.26S
ELMIRA         PTCLDY    67  51  56 SW7       30.25R
BINGHAMTON     PTCLDY    65  40  39 S8        30.29S
$$

NYZ026>034-041>043-087-230000-
NORTH


CITY           SKY/WX    TMP DP  RH WIND       PRES   REMARKS
WATERTOWN      PTCLDY    58  52  80 E3        30.21S
FORT DRUM      NOT AVBL
OGDENSBURG     FAIR      58  54  84 CALM      30.22R
MASSENA        PTCLDY    60  53  77 CALM      30.24S
SARANAC LAKE   CLEAR     54  46  74 CALM      30.28R
PLATTSBURGH    CLOUDY    60  49  66 CALM      30.24S
$$

NYZ001>004-010>016-019>021-085-230000-
WEST


CITY           SKY/WX    TMP DP  RH WIND       PRES   REMARKS
NIAGARA FALLS  MOCLDY    68  51  54 CALM      30.14S
BUFFALO        MOCLDY    72  50  45 SE5       30.15F
DUNKIRK        CLOUDY    63  55  75 S3        30.15S
JAMESTOWN      CLOUDY    66  50  56 S5        30.21R
WELLSVILLE     MOCLDY    66  48  52 S9        30.26S
ROCHESTER      CLOUDY    67  56  67 SE6       30.18S
PENN YAN       PTCLDY    66  49  54 SE7       30.23S
$$

             KEY
       WCI = WIND CHILL INDEX
       VSB = VISIBILITY
       HX  = HEAT INDEX
$$




USA.gov is the U.S. government's official web portal to all federal, state and local government web resources and services.